This demonstration page uses our WeatherBlox Daily Observations layout. Learn more.

Left ArrowRight Arrow

Hourly Observations for November 28, 2021

Temp ( °F °C ) Dew Point ( °F °C ) Humidity (%) Winds ( mph kmh ) Pressure ( in mb ) Visibility ( mi km ) Precip ( " mm )
12:53 am 00:53 Clear 40 4.4 32 0 73 73 Calm 30.04 1017 10 16 0.00 0.00
1:53 am 01:53 Clear 37 2.8 31 -0.6 79 79 Calm 30.03 1017 10 16 0.00 0.00
2:53 am 02:53 Clear 39 3.9 32 0 76 76 Calm 30.04 1017 10 16 0.00 0.00
3:53 am 03:53 Clear 35 1.7 31 -0.6 85 85 Calm 30.03 1017 10 16 0.00 0.00
4:53 am 04:53 Clear 37 2.8 33 0.6 86 86 Calm 30.02 1017 10 16 0.00 0.00
5:53 am 05:53 Clear 37 2.8 32 0 82 82 Calm 30.02 1017 10 16 0.00 0.00
6:53 am 06:53 Clear 35 1.7 31 -0.6 85 85 Calm 30.04 1017 10 16 0.00 0.00
7:53 am 07:53 Sunny 35 1.7 32 0 89 89 Calm 30.04 1017 10 16 0.00 0.00
8:53 am 08:53 Sunny 41 5 34 1.1 76 76 SSW 3 6 30.05 1018 10 16 0.00 0.00
9:53 am 09:53 Sunny 48 8.9 34 1.1 58 58 undefined N/A 30.06 1018 10 16 0.00 0.00
10:53 am 10:53 Sunny 52 11.1 31 -0.6 45 45 NW 6 9 30.05 1018 10 16 0.00 0.00
11:53 am 11:53 Sunny 52 11.1 29 -1.7 41 41 NW 6 9 30.02 1017 10 16 0.00 0.00
12:53 pm 12:53 Sunny 53 11.7 30 -1.1 41 41 W 8 13 30.03 1017 10 16 0.00 0.00
1:53 pm 13:53 Sunny 56 13.3 32 0 40 40 NW 6 9 29.98 1015 10 16 0.00 0.00
2:53 pm 14:53 Sunny 57 13.9 33 0.6 41 41 W 6 9 29.96 1015 10 16 0.00 0.00
3:53 pm 15:53 Sunny 59 15 34 1.1 39 39 W 6 9 29.96 1015 10 16 0.00 0.00
4:53 pm 16:53 Sunny 59 15 33 0.6 38 38 NW 7 11 29.98 1015 10 16 0.00 0.00
5:53 pm 17:53 Clear 54 12.2 34 1.1 47 47 NW 6 9 29.99 1016 10 16 0.00 0.00
6:53 pm 18:53 Clear 51 10.6 34 1.1 52 52 Calm 30.01 1016 10 16 0.00 0.00
7:53 pm 19:53 Clear 46 7.8 35 1.7 66 66 Calm 30.01 1016 10 16 0.00 0.00
8:53 pm 20:53 Clear 48 8.9 36 2.2 63 63 WNW 6 9 30.01 1016 10 16 0.00 0.00
9:53 pm 21:53 Clear 50 10 34 1.1 54 54 NNW 9 15 30.02 1017 10 16 0.00 0.00
10:53 pm 22:53 Clear 48 8.9 31 -0.6 52 52 NNW 9 15 30.04 1017 10 16 0.00 0.00
11:53 pm 23:53 Clear 46 7.8 30 -1.1 54 54 NNW 10 17 30.05 1018 10 16 0.00 0.00

Powered by AerisWeather